TimeCST,TemperatureF,Dew PointF,Humidity,Sea Level PressureIn,VisibilityMPH,Wind Direction,Wind SpeedMPH,Gust SpeedMPH,PrecipitationIn,Events,Conditions,WindDirDegrees,DateUTC
12:04 AM,26.1,19.0,75,30.29,10.0,NNE,15.0,-,N/A,,Mostly Cloudy,20,2014-03-03 06:04:00
12:22 AM,25.0,19.0,78,30.30,10.0,NNE,13.8,-,N/A,,Scattered Clouds,20,2014-03-03 06:22:00
12:53 AM,24.1,18.0,77,30.33,10.0,NE,9.2,-,N/A,,Partly Cloudy,40,2014-03-03 06:53:00
1:53 AM,23.0,17.1,78,30.34,10.0,NE,3.5,-,N/A,,Partly Cloudy,50,2014-03-03 07:53:00
2:09 AM,23.0,17.1,78,30.34,10.0,East,3.5,-,N/A,,Mostly Cloudy,80,2014-03-03 08:09:00
2:53 AM,21.9,15.1,75,30.33,10.0,ENE,4.6,-,N/A,,Mostly Cloudy,70,2014-03-03 08:53:00
3:08 AM,21.9,15.1,75,30.33,10.0,ENE,4.6,-,N/A,,Partly Cloudy,60,2014-03-03 09:08:00
3:53 AM,21.0,14.0,74,30.31,10.0,NNE,4.6,-,N/A,,Partly Cloudy,20,2014-03-03 09:53:00
4:06 AM,21.0,14.0,74,30.33,10.0,NNE,3.5,-,N/A,,Mostly Cloudy,20,2014-03-03 10:06:00
4:53 AM,21.9,14.0,72,30.31,10.0,North,5.8,-,N/A,,Overcast,10,2014-03-03 10:53:00
5:53 AM,21.9,15.1,75,30.31,10.0,NNW,8.1,-,N/A,,Overcast,330,2014-03-03 11:53:00
6:32 AM,21.9,15.1,75,30.32,10.0,NNW,6.9,-,N/A,,Overcast,330,2014-03-03 12:32:00
6:46 AM,23.0,15.1,72,30.33,10.0,North,9.2,-,N/A,,Overcast,350,2014-03-03 12:46:00
6:53 AM,23.0,15.1,72,30.31,10.0,North,9.2,-,N/A,,Overcast,360,2014-03-03 12:53:00
7:53 AM,23.0,15.1,72,30.33,10.0,NNW,6.9,-,N/A,,Overcast,340,2014-03-03 13:53:00
8:53 AM,25.0,16.0,69,30.36,10.0,NNW,4.6,-,N/A,,Overcast,340,2014-03-03 14:53:00
9:53 AM,26.1,16.0,66,30.37,10.0,NW,4.6,-,N/A,,Scattered Clouds,320,2014-03-03 15:53:00
10:53 AM,32.0,17.1,54,30.35,10.0,Variable,4.6,-,N/A,,Clear,0,2014-03-03 16:53:00
11:53 AM,36.0,17.1,46,30.31,10.0,NNE,5.8,-,N/A,,Clear,20,2014-03-03 17:53:00
12:53 PM,37.0,17.1,44,30.27,10.0,Variable,4.6,-,N/A,,Clear,0,2014-03-03 18:53:00
1:53 PM,39.0,17.1,41,30.23,10.0,Variable,3.5,-,N/A,,Clear,0,2014-03-03 19:53:00
2:53 PM,42.1,18.0,38,30.19,10.0,Variable,3.5,-,N/A,,Clear,0,2014-03-03 20:53:00
3:53 PM,41.0,17.1,38,30.17,10.0,NE,10.4,-,N/A,,Clear,50,2014-03-03 21:53:00
4:53 PM,39.9,17.1,40,30.16,10.0,ENE,10.4,-,N/A,,Clear,60,2014-03-03 22:53:00
5:53 PM,39.0,17.1,41,30.17,10.0,NE,10.4,-,N/A,,Clear,50,2014-03-03 23:53:00
6:53 PM,39.0,16.0,39,30.17,10.0,NE,8.1,-,N/A,,Clear,50,2014-03-04 00:53:00
7:53 PM,37.9,16.0,41,30.19,10.0,NE,4.6,-,N/A,,Clear,40,2014-03-04 01:53:00
8:53 PM,37.9,16.0,41,30.18,10.0,NE,4.6,-,N/A,,Clear,50,2014-03-04 02:53:00
9:53 PM,37.9,16.0,41,30.17,10.0,ENE,5.8,-,N/A,,Clear,70,2014-03-04 03:53:00
10:53 PM,37.0,16.0,42,30.15,10.0,Calm,Calm,-,N/A,,Clear,0,2014-03-04 04:53:00
11:53 PM,37.0,17.1,44,30.12,10.0,ESE,5.8,-,N/A,,Clear,120,2014-03-04 05:53:00